[[{"header":{"parameterUnit":"m.s-1","parameterCategory":1,"la1":30.2991,"la2":30.254,"lo1":-89.0895,"lo2":-89.0444,"dy":0.0017,"dx":0.0017,"nx":28,"ny":28,"refTime":"2026-02-08T03:00:00:Z","depth":0,"parameterNumber":2,"parameterNumberName":"U-component_of_WINDS"},"data":[0,0,0,0,0,0,0,0,0,0,0,0,0,0,0,0,0,0,0,0,0,0,0,0,0,0,0,0,0,0,0,0,0,0,0,0,0,0,0,0,0,0,0,0,0,0,0,0,0,0,0,0,0,0,0,0,0,0,-1.6257,-1.6257,0,-1.6295,-1.6295,-1.6295,-1.6276,-1.6275,-1.6274,-1.6273,-1.6314,-1.6316,-1.6318,0,0,0,0,0,0,0,0,0,0,0,0,0,-1.617,-1.6172,-1.6257,-1.6257,-1.6258,-1.6295,-1.6295,-1.6296,-1.6276,-1.6275,-1.6274,-1.6273,-1.6313,-1.6316,-1.6318,0,0,0,0,0,0,0,0,0,0,0,0,0,-1.6208,-1.6172,-1.6257,-1.6253,-1.6253,-1.6294,-1.6295,-1.6296,-1.6277,-1.6275,-1.6274,-1.6272,-1.6312,-1.6315,-1.6318,-1.6367,0,0,-1.6328,-1.6329,0,0,0,0,0,0,0,0,-1.6206,-1.6211,-1.6253,-1.6253,-1.6253,-1.6279,-1.6279,-1.632,-1.6277,-1.6268,-1.6273,-1.6272,-1.6304,-1.6307,-1.6318,-1.6369,-1.6371,-1.6328,-1.633,-1.6331,-1.6332,0,0,0,0,0,0,0,-1.6203,-1.6209,-1.6272,-1.6253,-1.6254,-1.625,-1.6253,-1.6287,-1.6294,-1.6268,-1.6267,-1.6272,-1.6303,-1.6315,-1.6319,-1.6371,-1.6328,-1.633,-1.6332,-1.6333,-1.6464,-1.6466,0,0,0,0,0,0,-1.62,-1.6207,-1.6271,-1.6273,-1.6225,-1.6252,-1.6256,-1.6272,-1.6293,-1.6295,-1.6273,-1.6271,-1.631,-1.6315,-1.632,-1.6378,-1.6331,-1.6334,-1.6335,-1.6463,-1.6465,-1.6467,0,0,0,0,0,0,-1.6199,-1.6206,-1.6269,-1.624,-1.6247,-1.6255,-1.6273,-1.6274,-1.6285,-1.6297,-1.6298,-1.6283,-1.6309,-1.6316,-1.6355,-1.6379,-1.6335,-1.6338,-1.6461,-1.6463,-1.6466,-1.6494,0,0,0,0,0,0,-1.6196,-1.6206,-1.6224,-1.624,-1.6249,-1.6303,-1.6275,-1.6276,-1.629,-1.6288,-1.6307,-1.6308,-1.6309,-1.6351,-1.6358,-1.6382,-1.634,-1.6459,-1.6462,-1.6465,-1.6491,-1.6497,-1.6503,0,0,0,0,0,-1.6193,-1.6231,-1.6225,-1.6232,-1.6272,-1.6305,-1.631,-1.6309,-1.6292,-1.6311,-1.6318,-1.6308,-1.6376,-1.6355,-1.6363,-1.6389,-1.6457,-1.6461,-1.6465,-1.6489,-1.6496,-1.6503,0,0,0,0,0,0,-1.6217,-1.6233,-1.6226,-1.627,-1.6286,-1.6301,-1.6324,-1.6317,-1.6338,-1.6335,-1.6334,-1.6338,-1.6379,-1.6388,-1.6365,-1.6437,-1.6414,-1.6419,-1.6429,-1.6437,-1.6442,-1.6439,-1.6343,0,0,0,0,0,-1.6227,-1.6252,-1.6265,-1.6302,-1.6311,-1.6316,-1.6331,-1.6329,-1.6345,-1.6352,-1.6363,-1.638,-1.6405,-1.6422,-1.6445,-1.6493,-1.6497,-1.6515,-1.652,-1.6525,-1.6529,-1.6555,-1.6563,-1.6479,-1.6479,-1.6479,0,0,-1.6249,-1.6261,-1.6276,-1.6307,-1.632,-1.6346,-1.6322,-1.6351,-1.637,-1.6357,-1.6394,-1.6403,-1.6422,-1.6466,-1.6486,-1.6475,-1.6554,-1.653,-1.6533,-1.6535,-1.656,-1.6568,-1.6575,-1.6481,-1.6481,-1.6481,0,0,-1.6301,-1.6313,-1.6345,-1.6358,-1.6376,-1.638,-1.6388,-1.6405,-1.6409,-1.6447,-1.6437,-1.6461,-1.6505,-1.6519,-1.6532,-1.659,-1.6582,-1.6598,-1.6628,-1.6653,-1.666,-1.6666,-1.6686,-1.6693,-1.6603,-1.6603,-1.6603,0,-1.6326,-1.6364,-1.6363,-1.6392,-1.6406,-1.6395,-1.6428,-1.6441,-1.6467,-1.6477,-1.6464,-1.6518,-1.653,-1.6577,-1.6591,-1.6603,-1.6612,-1.6595,-1.6659,-1.6665,-1.667,-1.669,-1.6697,-1.6605,-1.6605,-1.6605,-1.6604,0,-1.6393,-1.642,-1.6444,-1.6469,-1.6486,-1.6517,-1.6521,-1.6538,-1.6535,-1.6541,-1.6579,-1.6594,-1.662,-1.6632,-1.6629,-1.6678,-1.6671,-1.6659,-1.6635,-1.668,-1.6698,-1.6706,-1.6608,-1.6607,-1.6606,-1.6606,0,0,-1.6461,-1.6484,-1.6493,-1.6504,-1.6524,-1.6545,-1.6576,-1.6602,-1.6616,-1.6635,-1.6661,-1.6699,-1.6687,-1.6702,-1.6702,-1.6724,-1.6769,-1.6709,-1.6709,-1.6719,-1.6823,-1.6831,-1.684,-1.6764,-1.6765,-1.6766,-1.6821,0,-1.6514,-1.6567,-1.6567,-1.6616,-1.6641,-1.6631,-1.6659,-1.6674,-1.668,-1.6703,-1.671,-1.6736,-1.672,-1.6729,-1.675,-1.6759,-1.679,-1.6755,-1.6788,-1.6789,-1.6782,-1.685,-1.6858,-1.6909,-1.6829,-1.683,-1.6831,0,-1.6582,-1.6602,-1.6654,-1.667,-1.6681,-1.6705,-1.6728,-1.675,-1.6768,-1.6771,-1.6788,-1.6784,-1.6817,-1.6793,-1.6838,-1.6814,-1.6828,-1.6834,-1.6836,-1.6838,-1.6812,-1.6853,-1.6926,-1.6933,-1.6842,-1.6841,-1.684,0,-1.6625,-1.6665,-1.6701,-1.6711,-1.6732,-1.6749,-1.6758,-1.6775,-1.679,-1.6811,-1.6821,-1.6846,-1.6859,-1.6879,-1.6882,-1.6865,-1.6927,-1.6904,-1.693,-1.693,-1.6943,-1.6941,-1.7018,-1.6954,-1.6953,-1.6953,-1.6953,0,-1.6684,-1.6715,-1.6721,-1.6743,-1.6778,-1.6779,-1.6814,-1.6822,-1.6837,-1.6861,-1.6855,-1.6878,-1.6881,-1.6905,-1.6908,-1.6945,-1.6951,-1.6954,-1.6955,-1.6954,-1.6954,-1.6962,-1.6958,-1.6955,-1.6955,-1.6955,-1.6954,0,-1.6737,-1.6741,-1.678,-1.6796,-1.6801,-1.6827,-1.6841,-1.6862,-1.6868,-1.6899,-1.6906,-1.6915,-1.6943,-1.6949,-1.6982,-1.6984,-1.7027,-1.7024,-1.702,-1.702,-1.7045,-1.7042,-1.7129,-1.714,-1.7069,-1.707,-1.7071,0,-1.6773,-1.6797,-1.6816,-1.6831,-1.6841,-1.6866,-1.6882,-1.6884,-1.69,-1.6923,-1.6942,-1.6969,-1.699,-1.7035,-1.7046,-1.7071,-1.7068,-1.7097,-1.7072,-1.7071,-1.7068,-1.7065,-1.7068,-1.7101,-1.7102,-1.7103,-1.7103,0,-1.6837,-1.6838,-1.686,-1.6883,-1.6902,-1.6921,-1.6938,-1.6951,-1.6956,-1.6975,-1.7003,-1.702,-1.7053,-1.708,-1.7106,-1.7117,-1.7111,-1.7111,-1.7118,-1.7117,-1.7114,-1.7115,-1.7032,-1.7109,-1.7108,-1.7108,-1.7107,-1.7107,-1.6882,-1.6903,-1.6919,-1.6944,-1.6958,-1.6974,-1.6995,-1.7004,-1.7027,-1.7054,-1.7054,-1.7084,-1.7103,-1.7136,-1.7149,-1.7173,-1.7164,-1.7175,-1.7177,-1.718,-1.7181,-1.7111,-1.7178,-1.7178,-1.7178,-1.7178,-1.7177,0,-1.6945,-1.6955,-1.6978,-1.7002,-1.7022,-1.7015,-1.7034,-1.7051,-1.7078,-1.7095,-1.7117,-1.7149,-1.7175,-1.7188,-1.7214,-1.7231,-1.7229,-1.7238,-1.7236,-1.7239,-1.7188,-1.7179,-1.7239,-1.7239,-1.7239,-1.7239,-1.7239,-1.7239,-1.6979,-1.7014,-1.7017,-1.7059,-1.7069,-1.7098,-1.711,-1.7126,-1.7139,-1.7175,-1.7197,-1.7205,-1.7221,-1.7248,-1.7272,-1.7275,-1.7285,-1.7294,-1.7296,-1.7249,-1.7242,-1.7236,-1.7227,-1.7297,-1.7297,-1.7344,-1.7345,-1.7345]},{"header":{"parameterUnit":"m.s-1","parameterCategory":1,"la1":30.2991,"la2":30.254,"lo1":-89.0895,"lo2":-89.0444,"dy":0.0017,"dx":0.0017,"nx":28,"ny":28,"refTime":"2026-02-08T03:00:00:Z","depth":0,"parameterNumber":3,"parameterNumberName":"V-component_of_WINDS"},"data":[0,0,0,0,0,0,0,0,0,0,0,0,0,0,0,0,0,0,0,0,0,0,0,0,0,0,0,0,0,0,0,0,0,0,0,0,0,0,0,0,0,0,0,0,0,0,0,0,0,0,0,0,0,0,0,0,0,0,2.0874,2.0875,0,2.0925,2.0925,2.0926,2.0918,2.0917,2.0916,2.0915,2.0966,2.0968,2.097,0,0,0,0,0,0,0,0,0,0,0,0,0,2.0771,2.0773,2.0874,2.0875,2.0876,2.0925,2.0925,2.0926,2.0918,2.0917,2.0916,2.0915,2.0965,2.0967,2.097,0,0,0,0,0,0,0,0,0,0,0,0,0,2.0818,2.0774,2.0874,2.0878,2.0878,2.0924,2.0925,2.0926,2.0918,2.0917,2.0916,2.0914,2.0964,2.0967,2.097,2.1016,0,0,2.098,2.0982,0,0,0,0,0,0,0,0,2.0815,2.0822,2.0877,2.0877,2.0878,2.0914,2.0907,2.0956,2.0919,2.0903,2.0915,2.0914,2.0949,2.0954,2.0966,2.1018,2.102,2.098,2.0982,2.0984,2.0985,0,0,0,0,0,0,0,2.0812,2.082,2.0894,2.0877,2.0879,2.0876,2.0882,2.0916,2.0933,2.0904,2.0904,2.091,2.095,2.0963,2.0967,2.1021,2.098,2.0983,2.0985,2.0986,2.1114,2.1115,0,0,0,0,0,0,2.0808,2.0817,2.0893,2.0896,2.0843,2.0879,2.0885,2.0904,2.0932,2.0936,2.0911,2.0909,2.0958,2.0963,2.0969,2.1025,2.0984,2.0987,2.0989,2.1112,2.1114,2.1116,0,0,0,0,0,0,2.0806,2.0815,2.0891,2.0856,2.0866,2.0883,2.0903,2.0905,2.0919,2.0937,2.094,2.0922,2.0957,2.0964,2.1004,2.1026,2.0988,2.0991,2.1111,2.1113,2.1115,2.1136,0,0,0,0,0,0,2.0803,2.0814,2.0832,2.0857,2.0868,2.0926,2.0905,2.0907,2.0924,2.0923,2.0948,2.0951,2.0957,2.1,2.1008,2.103,2.0994,2.1109,2.1112,2.1114,2.1134,2.1139,2.1143,0,0,0,0,0,2.0799,2.0835,2.0833,2.0842,2.089,2.0927,2.0933,2.0939,2.0926,2.0944,2.0956,2.095,2.1022,2.1004,2.1013,2.1036,2.1108,2.1111,2.1114,2.1131,2.1138,2.1143,0,0,0,0,0,0,2.0812,2.0839,2.0836,2.0881,2.0902,2.0926,2.0948,2.0946,2.097,2.0968,2.0974,2.098,2.1021,2.1032,2.1011,2.1082,2.1063,2.1068,2.1073,2.1079,2.1084,2.1081,2.0996,0,0,0,0,0,2.082,2.0848,2.087,2.0907,2.0918,2.0931,2.0948,2.0951,2.0972,2.0981,2.0996,2.1017,2.1045,2.1062,2.1089,2.1135,2.1141,2.1156,2.116,2.1164,2.1169,2.1195,2.1202,2.1127,2.1127,2.1127,0,0,2.0837,2.0855,2.0872,2.0911,2.0927,2.0956,2.0939,2.097,2.0992,2.0986,2.1025,2.1037,2.106,2.1104,2.1124,2.1115,2.1191,2.1168,2.1171,2.1174,2.1199,2.1206,2.1212,2.1129,2.1129,2.1128,0,0,2.0883,2.0899,2.0933,2.095,2.0975,2.0984,2.0992,2.1016,2.1024,2.1064,2.106,2.1085,2.1132,2.115,2.1165,2.1217,2.1213,2.1226,2.1251,2.1276,2.1282,2.1288,2.1307,2.1314,2.123,2.123,2.123,0,2.0901,2.0944,2.095,2.0982,2.0999,2.0996,2.103,2.1046,2.1078,2.109,2.108,2.1139,2.1155,2.1203,2.1216,2.1228,2.1237,2.1223,2.1281,2.1286,2.1292,2.131,2.1317,2.1232,2.1231,2.1231,2.1231,0,2.0965,2.0996,2.102,2.1052,2.1072,2.1104,2.1115,2.1135,2.1136,2.1146,2.1186,2.1205,2.1235,2.1247,2.1248,2.1295,2.1289,2.128,2.1261,2.13,2.1318,2.1325,2.1234,2.1233,2.1233,2.1232,0,0,2.1021,2.1056,2.1065,2.108,2.1108,2.1131,2.1164,2.1194,2.1211,2.1233,2.1261,2.1301,2.1293,2.131,2.1313,2.1335,2.1377,2.1323,2.1324,2.1333,2.1431,2.1438,2.1446,2.1374,2.1375,2.1376,2.1429,0,2.107,2.1128,2.1135,2.1187,2.1215,2.1212,2.1241,2.1261,2.1271,2.1296,2.1307,2.1336,2.1322,2.1333,2.1355,2.1367,2.1396,2.1363,2.14,2.1401,2.1395,2.1455,2.1463,2.1512,2.1436,2.1437,2.1438,0,2.1135,2.116,2.1215,2.124,2.1252,2.1277,2.1306,2.133,2.1353,2.1359,2.1378,2.1378,2.1412,2.1392,2.1438,2.1416,2.1431,2.1439,2.1441,2.1445,2.1422,2.1462,2.1528,2.1535,2.1449,2.1448,2.1447,0,2.1171,2.1218,2.1258,2.127,2.13,2.1318,2.1331,2.1352,2.137,2.1395,2.1407,2.1435,2.145,2.1472,2.148,2.1464,2.1526,2.1506,2.1532,2.1532,2.1546,2.1545,2.1616,2.1555,2.1555,2.1555,2.1554,0,2.1225,2.1259,2.1274,2.1299,2.1337,2.1343,2.1381,2.1393,2.1412,2.1439,2.1437,2.1462,2.1471,2.1497,2.1503,2.1542,2.1548,2.1554,2.1555,2.1555,2.1554,2.1565,2.1562,2.1556,2.1556,2.1556,2.1555,0,2.1272,2.1283,2.1326,2.1351,2.1358,2.1385,2.1406,2.1429,2.1439,2.1472,2.1481,2.1496,2.1527,2.1537,2.1574,2.1578,2.1623,2.1621,2.1615,2.1616,2.1641,2.1639,2.1722,2.1734,2.1665,2.1665,2.1666,0,2.1307,2.1333,2.1361,2.1378,2.1392,2.1421,2.144,2.1447,2.1466,2.1495,2.1515,2.1546,2.1571,2.162,2.1634,2.1663,2.1662,2.1689,2.1666,2.1665,2.1663,2.1662,2.1665,2.1694,2.1694,2.1695,2.1695,0,2.1367,2.1372,2.1398,2.1428,2.145,2.1473,2.1495,2.151,2.1521,2.1542,2.1574,2.1594,2.1632,2.1663,2.1692,2.1705,2.1702,2.1702,2.171,2.171,2.1706,2.1709,2.1628,2.1701,2.17,2.17,2.1699,2.1699,2.141,2.1433,2.1456,2.1486,2.1504,2.1525,2.1549,2.1561,2.1588,2.162,2.1623,2.1658,2.168,2.1719,2.1733,2.1761,2.1753,2.1764,2.1767,2.1769,2.1772,2.1701,2.1766,2.1766,2.1765,2.1765,2.1765,0,2.1471,2.1486,2.1513,2.1545,2.1569,2.1564,2.1589,2.1609,2.1639,2.1661,2.1685,2.1722,2.1752,2.1769,2.1798,2.1817,2.1817,2.1825,2.1824,2.1827,2.1777,2.1767,2.1825,2.1824,2.1824,2.1824,2.1824,2.1824,2.1505,2.1545,2.1552,2.1601,2.1615,2.165,2.1664,2.1683,2.1701,2.1742,2.1767,2.1778,2.1797,2.1828,2.1856,2.186,2.1871,2.188,2.1883,2.1836,2.183,2.1824,2.1816,2.1882,2.1882,2.1931,2.1932,2.1932]}]]